Location: Andrest
(43.3200°N, 0.0641°E)
Time: 21:41:39
(UTC+00:00)

CENTAUR R/B - Pass Details

Date: 01 December 2020
Orbit: 750 x 1438 km, 63.4° (Epoch: 11 January)

Event Time Altitude Azimuth Distance (km) Brightness Sun altitude
Rises 17:58:32 0° 184° (S) 3,325 5.6 -16.5°
Reaches altitude 10° 18:01:02 10° 175° (S) 2,467 4.7 -17.0°
Maximum altitude 18:06:05 33° 112° (ESE) 1,509 3.1 -17.9°
Enters shadow 18:07:44 29° 83° (E) 1,690 3.2 -18.1°
